TimeHST,TemperatureF,Dew PointF,Humidity,Sea Level PressureIn,VisibilityMPH,Wind Direction,Wind SpeedMPH,Gust SpeedMPH,PrecipitationIn,Events,Conditions,WindDirDegrees,DateUTC
12:04 AM,73.4,71.6,94,29.97,10.0,Calm,Calm,-,N/A,,Overcast,0,2014-02-19 10:04:00
12:31 AM,73.4,71.6,94,29.97,10.0,West,4.6,-,N/A,,Overcast,280,2014-02-19 10:31:00
12:53 AM,72.0,70.0,93,29.96,10.0,WNW,5.8,-,N/A,,Overcast,290,2014-02-19 10:53:00
1:13 AM,71.6,69.8,94,29.97,10.0,West,4.6,-,N/A,,Overcast,280,2014-02-19 11:13:00
1:41 AM,71.6,71.6,100,29.97,10.0,West,5.8,-,N/A,,Overcast,280,2014-02-19 11:41:00
1:53 AM,72.0,70.0,93,29.96,10.0,West,4.6,-,N/A,,Mostly Cloudy,280,2014-02-19 11:53:00
2:05 AM,71.6,69.8,94,29.96,10.0,West,5.8,-,N/A,,Overcast,280,2014-02-19 12:05:00
2:16 AM,71.6,69.8,94,29.96,10.0,WNW,4.6,-,N/A,,Mostly Cloudy,290,2014-02-19 12:16:00
2:53 AM,71.1,69.1,93,29.94,10.0,WSW,3.5,-,N/A,,Mostly Cloudy,250,2014-02-19 12:53:00
3:53 AM,71.1,69.1,93,29.94,10.0,West,4.6,-,N/A,,Overcast,270,2014-02-19 13:53:00
4:40 AM,71.6,69.8,94,29.95,10.0,West,3.5,-,N/A,,Mostly Cloudy,280,2014-02-19 14:40:00
4:53 AM,71.1,69.1,93,29.94,10.0,WNW,4.6,-,N/A,,Mostly Cloudy,290,2014-02-19 14:53:00
5:12 AM,71.6,69.8,94,29.95,6.0,Calm,Calm,-,0.00,Rain,Light Rain,0,2014-02-19 15:12:00
5:20 AM,71.6,69.8,94,29.96,2.5,SSW,8.1,-,0.03,Rain,Heavy Rain,200,2014-02-19 15:20:00
5:45 AM,73.4,71.6,94,29.96,8.0,Calm,Calm,-,0.18,Rain,Light Rain,0,2014-02-19 15:45:00
5:53 AM,73.0,71.1,93,29.96,10.0,Calm,Calm,-,0.18,,Overcast,0,2014-02-19 15:53:00
6:03 AM,73.4,71.6,94,29.96,10.0,Calm,Calm,-,N/A,,Overcast,0,2014-02-19 16:03:00
6:53 AM,73.0,72.0,96,29.98,10.0,Calm,Calm,-,N/A,,Mostly Cloudy,0,2014-02-19 16:53:00
7:53 AM,73.0,71.1,93,29.99,10.0,West,6.9,-,N/A,,Overcast,280,2014-02-19 17:53:00
8:53 AM,73.9,71.1,91,30.01,10.0,West,4.6,-,N/A,,Overcast,280,2014-02-19 18:53:00
9:05 AM,73.4,71.6,94,30.01,10.0,West,3.5,-,N/A,,Overcast,270,2014-02-19 19:05:00
9:53 AM,75.9,72.0,87,30.01,10.0,South,6.9,-,N/A,,Scattered Clouds,180,2014-02-19 19:53:00
10:45 AM,77.0,71.6,83,30.01,10.0,South,8.1,-,N/A,,Scattered Clouds,180,2014-02-19 20:45:00
10:53 AM,78.1,73.0,84,30.01,10.0,South,8.1,-,N/A,,Mostly Cloudy,170,2014-02-19 20:53:00
11:53 AM,79.0,73.0,82,29.99,10.0,SSE,8.1,-,N/A,,Overcast,160,2014-02-19 21:53:00
12:53 PM,79.0,72.0,79,29.96,10.0,SSE,10.4,-,N/A,,Partly Cloudy,160,2014-02-19 22:53:00
1:53 PM,78.1,72.0,81,29.94,10.0,South,10.4,-,N/A,,Mostly Cloudy,170,2014-02-19 23:53:00
2:39 PM,78.8,71.6,78,29.93,10.0,SSE,8.1,-,N/A,,Mostly Cloudy,150,2014-02-20 00:39:00
2:53 PM,78.1,73.0,84,29.93,10.0,ESE,9.2,-,N/A,,Scattered Clouds,120,2014-02-20 00:53:00
3:53 PM,78.1,73.0,84,29.93,10.0,ESE,8.1,-,N/A,,Scattered Clouds,120,2014-02-20 01:53:00
4:53 PM,77.0,72.0,84,29.94,10.0,ESE,8.1,-,N/A,,Mostly Cloudy,120,2014-02-20 02:53:00
5:53 PM,75.9,71.1,85,29.95,10.0,SE,5.8,-,N/A,,Clear,140,2014-02-20 03:53:00
6:53 PM,73.9,71.1,91,29.96,10.0,SSE,4.6,-,N/A,,Clear,150,2014-02-20 04:53:00
7:31 PM,73.4,71.6,94,29.97,9.0,SE,4.6,-,N/A,,Partly Cloudy,130,2014-02-20 05:31:00
7:53 PM,73.9,72.0,93,29.97,10.0,SE,3.5,-,N/A,,Scattered Clouds,130,2014-02-20 05:53:00
8:16 PM,73.4,71.6,94,29.98,8.0,ESE,3.5,-,N/A,,Mostly Cloudy,120,2014-02-20 06:16:00
8:53 PM,73.9,71.1,91,29.98,9.0,SE,3.5,-,N/A,,Overcast,130,2014-02-20 06:53:00
9:53 PM,73.9,72.0,93,29.99,10.0,South,3.5,-,N/A,,Overcast,180,2014-02-20 07:53:00
10:35 PM,73.4,71.6,94,29.99,10.0,Calm,Calm,-,N/A,,Mostly Cloudy,0,2014-02-20 08:35:00
10:53 PM,73.0,71.1,93,29.99,10.0,Calm,Calm,-,N/A,,Mostly Cloudy,0,2014-02-20 08:53:00
11:53 PM,73.0,71.1,93,29.98,10.0,Calm,Calm,-,N/A,,Overcast,0,2014-02-20 09:53:00